Time,TemperatureF,DewpointF,PressureIn,WindDirection,WindDirectionDegrees,WindSpeedMPH,WindSpeedGustMPH,Humidity,HourlyPrecipIn,Conditions,Clouds,dailyrainin,SoftwareType,DateUTC
2013-03-12 00:01:00,20.2,12.9,29.84,NNW,332,3.0,5.0,73,0.00,,SKC,0.00,VWS V14.01,2013-03-12 05:01:00,
2013-03-12 00:06:00,20.2,12.9,29.84,NW,323,3.0,3.0,73,0.00,,SKC,0.00,VWS V14.01,2013-03-12 05:06:00,
2013-03-12 00:11:00,20.2,12.6,29.84,NNW,328,3.0,5.0,72,0.00,,SKC,0.00,VWS V14.01,2013-03-12 05:11:00,
2013-03-12 00:16:00,20.2,12.3,29.84,NW,312,2.0,7.0,71,0.00,,SKC,0.00,VWS V14.01,2013-03-12 05:16:00,
2013-03-12 00:21:00,20.2,12.0,29.84,NW,312,4.0,7.0,70,0.00,,SKC,0.00,VWS V14.01,2013-03-12 05:21:00,
2013-03-12 00:26:00,20.2,12.3,29.84,NW,322,3.0,7.0,71,0.00,,SKC,0.00,VWS V14.01,2013-03-12 05:26:00,
2013-03-12 00:31:00,20.2,12.0,29.84,NNW,328,5.0,8.0,70,0.00,,SKC,0.00,VWS V14.01,2013-03-12 05:31:00,
2013-03-12 00:36:00,20.2,12.0,29.84,NW,325,4.0,7.0,70,0.00,,SKC,0.00,VWS V14.01,2013-03-12 05:36:00,
2013-03-12 00:41:00,20.2,12.0,29.84,NW,323,2.0,8.0,70,0.00,,SKC,0.00,VWS V14.01,2013-03-12 05:41:00,
2013-03-12 00:46:00,20.2,12.0,29.84,NW,326,2.0,8.0,70,0.00,,SKC,0.00,VWS V14.01,2013-03-12 05:46:00,
2013-03-12 00:51:00,20.2,12.0,29.84,NW,319,2.0,8.0,70,0.00,,SKC,0.00,VWS V14.01,2013-03-12 05:51:00,
2013-03-12 00:56:00,20.0,12.1,29.84,NW,312,6.0,6.0,71,0.00,,SKC,0.00,VWS V14.01,2013-03-12 05:56:00,
2013-03-12 01:00:00,20.0,12.1,29.84,NNW,342,2.0,7.0,71,0.00,,SKC,0.00,VWS V14.01,2013-03-12 06:00:00,
2013-03-12 01:05:00,20.0,12.1,29.84,NW,326,2.0,7.0,71,0.00,,SKC,0.00,VWS V14.01,2013-03-12 06:05:00,
2013-03-12 01:10:00,20.2,12.3,29.84,NNW,328,4.0,7.0,71,0.00,,SKC,0.00,VWS V14.01,2013-03-12 06:10:00,
2013-03-12 01:15:00,20.2,12.6,29.84,NNW,329,2.0,7.0,72,0.00,,SKC,0.00,VWS V14.01,2013-03-12 06:15:00,
2013-03-12 01:20:00,20.2,12.9,29.84,NW,318,3.0,7.0,73,0.00,,SKC,0.00,VWS V14.01,2013-03-12 06:20:00,
2013-03-12 01:25:00,20.0,12.8,29.84,NW,316,5.0,6.0,73,0.00,,SKC,0.00,VWS V14.01,2013-03-12 06:25:00,
2013-03-12 01:30:00,20.2,13.2,29.83,NW,326,2.0,6.0,74,0.00,,SKC,0.00,VWS V14.01,2013-03-12 06:30:00,
2013-03-12 01:35:00,20.0,13.1,29.83,NW,320,3.0,8.0,74,0.00,,SKC,0.00,VWS V14.01,2013-03-12 06:35:00,
2013-03-12 01:40:00,20.0,13.4,29.83,NW,322,2.0,8.0,75,0.00,,SKC,0.00,VWS V14.01,2013-03-12 06:40:00,
2013-03-12 01:45:00,20.0,13.4,29.83,NNW,332,2.0,7.0,75,0.00,,SKC,0.00,VWS V14.01,2013-03-12 06:45:00,
2013-03-12 01:50:00,20.0,13.7,29.83,NW,322,2.0,7.0,76,0.00,,SKC,0.00,VWS V14.01,2013-03-12 06:50:00,
2013-03-12 01:55:00,20.2,14.2,29.83,NW,325,6.0,7.0,77,0.00,,SKC,0.00,VWS V14.01,2013-03-12 06:55:00,
2013-03-12 02:00:00,20.2,14.2,29.83,NW,319,2.0,7.0,77,0.00,,SKC,0.00,VWS V14.01,2013-03-12 07:00:00,
2013-03-12 02:05:00,20.3,14.6,29.83,NNW,332,5.0,6.0,78,0.00,,SKC,0.00,VWS V14.01,2013-03-12 07:05:00,
2013-03-12 02:10:00,20.3,14.6,29.83,NW,318,2.0,6.0,78,0.00,,SKC,0.00,VWS V14.01,2013-03-12 07:10:00,
2013-03-12 02:15:00,20.3,14.3,29.83,North,352,2.0,6.0,77,0.00,,SKC,0.00,VWS V14.01,2013-03-12 07:15:00,
2013-03-12 02:20:00,20.2,14.2,29.83,NW,315,2.0,6.0,77,0.00,,SKC,0.00,VWS V14.01,2013-03-12 07:20:00,
2013-03-12 02:25:00,20.0,14.3,29.83,NNW,330,2.0,4.0,78,0.00,,SKC,0.00,VWS V14.01,2013-03-12 07:25:00,
2013-03-12 02:30:00,19.9,14.4,29.83,NNW,329,2.0,4.0,79,0.00,,SKC,0.00,VWS V14.01,2013-03-12 07:30:00,
2013-03-12 02:35:00,19.9,14.4,29.83,NNW,332,2.0,6.0,79,0.00,,SKC,0.00,VWS V14.01,2013-03-12 07:35:00,
2013-03-12 02:40:00,19.9,14.4,29.83,NW,323,3.0,6.0,79,0.00,,SKC,0.00,VWS V14.01,2013-03-12 07:40:00,
2013-03-12 02:45:00,20.0,14.6,29.83,NNW,336,3.0,5.0,79,0.00,,SKC,0.00,VWS V14.01,2013-03-12 07:45:00,
2013-03-12 02:50:00,20.0,14.8,29.83,NW,322,3.0,6.0,80,0.00,,SKC,0.00,VWS V14.01,2013-03-12 07:50:00,
2013-03-12 02:55:00,20.2,15.0,29.83,NW,326,1.0,6.0,80,0.00,,SKC,0.00,VWS V14.01,2013-03-12 07:55:00,
2013-03-12 03:00:00,20.2,15.0,29.83,NNW,330,1.0,6.0,80,0.00,,SKC,0.00,VWS V14.01,2013-03-12 08:00:00,
2013-03-12 03:05:00,20.2,15.3,29.83,NW,322,3.0,6.0,81,0.00,,SKC,0.00,VWS V14.01,2013-03-12 08:05:00,
2013-03-12 03:10:00,20.2,15.3,29.83,NNW,344,6.0,6.0,81,0.00,,SKC,0.00,VWS V14.01,2013-03-12 08:10:00,
2013-03-12 03:15:00,20.2,15.3,29.83,NNW,340,2.0,6.0,81,0.00,,SKC,0.00,VWS V14.01,2013-03-12 08:15:00,
2013-03-12 03:20:00,20.2,15.3,29.83,NNW,330,3.0,6.0,81,0.00,,SKC,0.00,VWS V14.01,2013-03-12 08:20:00,
2013-03-12 03:25:00,20.2,15.6,29.83,NNW,343,2.0,5.0,82,0.00,,SKC,0.00,VWS V14.01,2013-03-12 08:25:00,
2013-03-12 03:30:00,20.0,15.4,29.83,North,350,5.0,5.0,82,0.00,,SKC,0.00,VWS V14.01,2013-03-12 08:30:00,
2013-03-12 03:35:00,20.0,15.4,29.83,NNW,339,3.0,5.0,82,0.00,,SKC,0.00,VWS V14.01,2013-03-12 08:35:00,
2013-03-12 03:40:00,20.0,15.4,29.83,NNW,339,2.0,5.0,82,0.00,,SKC,0.00,VWS V14.01,2013-03-12 08:40:00,
2013-03-12 03:45:00,20.0,15.1,29.83,NNW,332,3.0,8.0,81,0.00,,SKC,0.00,VWS V14.01,2013-03-12 08:45:00,
2013-03-12 03:50:00,20.0,14.8,29.83,NNW,346,2.0,8.0,80,0.00,,SKC,0.00,VWS V14.01,2013-03-12 08:50:00,
2013-03-12 03:55:00,20.0,14.8,29.83,North,349,6.0,6.0,80,0.00,,SKC,0.00,VWS V14.01,2013-03-12 08:55:00,
2013-03-12 04:00:00,20.0,14.8,29.83,North,352,4.0,7.0,80,0.00,,SKC,0.00,VWS V14.01,2013-03-12 09:00:00,
2013-03-12 04:05:00,20.0,14.8,29.83,NNW,333,2.0,5.0,80,0.00,,SKC,0.00,VWS V14.01,2013-03-12 09:05:00,
2013-03-12 04:10:00,20.0,14.8,29.83,North,0,5.0,5.0,80,0.00,,SKC,0.00,VWS V14.01,2013-03-12 09:10:00,
2013-03-12 04:15:00,19.9,14.7,29.83,North,0,5.0,6.0,80,0.00,,SKC,0.00,VWS V14.01,2013-03-12 09:15:00,
2013-03-12 04:20:00,19.9,14.7,29.84,North,353,3.0,6.0,80,0.00,,SKC,0.00,VWS V14.01,2013-03-12 09:20:00,
2013-03-12 04:25:00,19.9,14.7,29.84,North,0,6.0,6.0,80,0.00,,SKC,0.00,VWS V14.01,2013-03-12 09:25:00,
2013-03-12 04:30:00,19.9,14.4,29.84,North,0,3.0,6.0,79,0.00,,SKC,0.00,VWS V14.01,2013-03-12 09:30:00,
2013-03-12 04:35:00,19.9,14.4,29.84,North,359,2.0,3.0,79,0.00,,SKC,0.00,VWS V14.01,2013-03-12 09:35:00,
2013-03-12 04:40:00,19.9,14.4,29.84,NNW,342,3.0,5.0,79,0.00,,SKC,0.00,VWS V14.01,2013-03-12 09:40:00,
2013-03-12 04:45:00,19.9,14.2,29.84,North,0,5.0,7.0,78,0.00,,SKC,0.00,VWS V14.01,2013-03-12 09:45:00,
2013-03-12 04:50:00,19.9,14.2,29.84,NNW,337,3.0,7.0,78,0.00,,SKC,0.00,VWS V14.01,2013-03-12 09:50:00,
2013-03-12 04:55:00,19.7,13.7,29.84,NNW,337,3.0,6.0,77,0.00,,SKC,0.00,VWS V14.01,2013-03-12 09:55:00,
2013-03-12 05:00:00,19.7,13.7,29.84,North,0,1.0,8.0,77,0.00,,SKC,0.00,VWS V14.01,2013-03-12 10:00:00,
2013-03-12 05:05:00,19.7,13.7,29.85,North,356,7.0,7.0,77,0.00,,SKC,0.00,VWS V14.01,2013-03-12 10:05:00,
2013-03-12 05:10:00,19.7,13.7,29.85,North,349,2.0,7.0,77,0.00,,SKC,0.00,VWS V14.01,2013-03-12 10:10:00,
2013-03-12 05:15:00,19.7,13.7,29.85,North,350,6.0,8.0,77,0.00,,SKC,0.00,VWS V14.01,2013-03-12 10:15:00,
2013-03-12 05:20:00,19.5,13.5,29.85,North,4,3.0,8.0,77,0.00,,SKC,0.00,VWS V14.01,2013-03-12 10:20:00,
2013-03-12 05:25:00,19.5,13.2,29.85,North,0,6.0,6.0,76,0.00,,SKC,0.00,VWS V14.01,2013-03-12 10:25:00,
2013-03-12 05:30:00,19.5,13.2,29.85,North,356,4.0,7.0,76,0.00,,SKC,0.00,VWS V14.01,2013-03-12 10:30:00,
2013-03-12 05:35:00,19.4,13.1,29.86,North,6,6.0,6.0,76,0.00,,SKC,0.00,VWS V14.01,2013-03-12 10:35:00,
2013-03-12 05:40:00,19.4,13.1,29.86,NNW,347,2.0,6.0,76,0.00,,SKC,0.00,VWS V14.01,2013-03-12 10:40:00,
2013-03-12 05:45:00,19.4,13.1,29.86,North,349,5.0,7.0,76,0.00,,SKC,0.00,VWS V14.01,2013-03-12 10:45:00,
2013-03-12 05:50:00,19.4,13.1,29.86,North,356,5.0,11.0,76,0.00,,SKC,0.00,VWS V14.01,2013-03-12 10:50:00,
2013-03-12 05:55:00,19.4,13.1,29.86,North,0,5.0,8.0,76,0.00,,SKC,0.00,VWS V14.01,2013-03-12 10:55:00,
2013-03-12 06:00:00,19.2,12.9,29.86,North,0,4.0,8.0,76,0.00,,SKC,0.00,VWS V14.01,2013-03-12 11:00:00,
2013-03-12 06:05:00,19.2,13.5,29.87,North,359,6.0,7.0,78,0.00,,SKC,0.00,VWS V14.01,2013-03-12 11:05:00,
2013-03-12 06:10:00,19.2,13.5,29.87,North,8,6.0,8.0,78,0.00,,SKC,0.00,VWS V14.01,2013-03-12 11:10:00,
2013-03-12 06:15:00,19.2,13.5,29.87,North,0,2.0,5.0,78,0.00,,SKC,0.00,VWS V14.01,2013-03-12 11:15:00,
2013-03-12 06:20:00,19.1,13.4,29.88,NNE,13,2.0,7.0,78,0.00,,SKC,0.00,VWS V14.01,2013-03-12 11:20:00,
2013-03-12 06:25:00,19.1,13.4,29.88,North,0,2.0,5.0,78,0.00,,SKC,0.00,VWS V14.01,2013-03-12 11:25:00,
2013-03-12 06:30:00,19.1,13.1,29.88,North,6,5.0,8.0,77,0.00,,SKC,0.00,VWS V14.01,2013-03-12 11:30:00,
2013-03-12 06:35:00,19.1,13.1,29.89,North,359,6.0,8.0,77,0.00,,SKC,0.00,VWS V14.01,2013-03-12 11:35:00,
2013-03-12 06:40:00,19.1,13.1,29.89,North,3,8.0,8.0,77,0.00,,SKC,0.00,VWS V14.01,2013-03-12 11:40:00,
2013-03-12 06:45:00,18.9,12.9,29.89,North,0,2.0,7.0,77,0.00,,SKC,0.00,VWS V14.01,2013-03-12 11:45:00,
2013-03-12 06:50:00,18.8,12.8,29.89,North,354,3.0,7.0,77,0.00,,SKC,0.00,VWS V14.01,2013-03-12 11:50:00,
2013-03-12 06:55:00,18.6,12.6,29.89,North,356,3.0,8.0,77,0.00,,SKC,0.00,VWS V14.01,2013-03-12 11:55:00,
2013-03-12 07:00:00,18.6,12.6,29.89,North,0,6.0,10.0,77,0.00,,SKC,0.00,VWS V14.01,2013-03-12 12:00:00,
2013-03-12 07:05:00,18.3,12.3,29.89,North,359,5.0,6.0,77,0.00,,SKC,0.00,VWS V14.01,2013-03-12 12:05:00,
2013-03-12 07:10:00,18.3,12.3,29.89,North,359,3.0,7.0,77,0.00,,SKC,0.00,VWS V14.01,2013-03-12 12:10:00,
2013-03-12 07:15:00,18.1,12.1,29.89,North,1,7.0,8.0,77,0.00,,SKC,0.00,VWS V14.01,2013-03-12 12:15:00,
2013-03-12 07:20:00,18.0,12.0,29.90,North,354,2.0,8.0,77,0.00,,SKC,0.00,VWS V14.01,2013-03-12 12:20:00,
2013-03-12 07:25:00,18.0,12.0,29.90,North,0,6.0,6.0,77,0.00,,SKC,0.00,VWS V14.01,2013-03-12 12:25:00,
2013-03-12 07:30:00,17.8,12.1,29.90,North,0,5.0,8.0,78,0.00,,SKC,0.00,VWS V14.01,2013-03-12 12:30:00,
2013-03-12 07:35:00,17.7,12.0,29.90,North,359,2.0,6.0,78,0.00,,SKC,0.00,VWS V14.01,2013-03-12 12:35:00,
2013-03-12 07:40:00,17.5,11.8,29.90,North,0,2.0,7.0,78,0.00,,SKC,0.00,VWS V14.01,2013-03-12 12:40:00,
2013-03-12 07:45:00,17.5,11.8,29.90,NNW,340,5.0,5.0,78,0.00,,SKC,0.00,VWS V14.01,2013-03-12 12:45:00,
2013-03-12 07:50:00,17.5,11.8,29.91,NNW,344,4.0,4.0,78,0.00,,SKC,0.00,VWS V14.01,2013-03-12 12:50:00,
2013-03-12 07:55:00,17.5,11.8,29.91,North,356,3.0,7.0,78,0.00,,SKC,0.00,VWS V14.01,2013-03-12 12:55:00,
2013-03-12 08:00:00,17.5,11.5,29.91,North,359,3.0,8.0,77,0.00,,SKC,0.00,VWS V14.01,2013-03-12 13:00:00,
2013-03-12 08:05:00,17.3,11.3,29.91,North,356,6.0,7.0,77,0.00,,SKC,0.00,VWS V14.01,2013-03-12 13:05:00,
2013-03-12 08:10:00,17.3,11.3,29.91,North,0,3.0,8.0,77,0.00,,SKC,0.00,VWS V14.01,2013-03-12 13:10:00,
2013-03-12 08:15:00,17.2,11.2,29.91,North,0,6.0,8.0,77,0.00,,SKC,0.00,VWS V14.01,2013-03-12 13:15:00,
2013-03-12 08:20:00,17.3,11.3,29.93,North,0,2.0,8.0,77,0.00,,SKC,0.00,VWS V14.01,2013-03-12 13:20:00,
2013-03-12 08:25:00,17.2,11.2,29.93,North,1,3.0,6.0,77,0.00,,SKC,0.00,VWS V14.01,2013-03-12 13:25:00,
2013-03-12 08:30:00,17.3,11.3,29.93,North,0,2.0,8.0,77,0.00,,SKC,0.00,VWS V14.01,2013-03-12 13:30:00,
2013-03-12 08:35:00,17.7,11.7,29.93,NNW,343,5.0,5.0,77,0.00,,SKC,0.00,VWS V14.01,2013-03-12 13:35:00,
2013-03-12 08:40:00,17.7,11.7,29.93,North,0,3.0,8.0,77,0.00,,SKC,0.00,VWS V14.01,2013-03-12 13:40:00,
2013-03-12 08:45:00,17.8,11.8,29.93,North,3,5.0,9.0,77,0.00,,SKC,0.00,VWS V14.01,2013-03-12 13:45:00,
2013-03-12 08:50:00,17.8,11.8,29.93,NNE,17,2.0,9.0,77,0.00,,SKC,0.00,VWS V14.01,2013-03-12 13:50:00,
2013-03-12 08:55:00,17.8,12.1,29.93,North,352,7.0,11.0,78,0.00,,SKC,0.00,VWS V14.01,2013-03-12 13:55:00,
2013-03-12 09:00:00,17.7,12.3,29.93,North,3,6.0,13.0,79,0.00,,SKC,0.00,VWS V14.01,2013-03-12 14:00:00,
2013-03-12 09:05:00,17.7,12.3,29.94,North,0,7.0,9.0,79,0.00,,SKC,0.00,VWS V14.01,2013-03-12 14:05:00,
2013-03-12 09:10:00,17.8,12.4,29.94,North,4,3.0,9.0,79,0.00,,SKC,0.00,VWS V14.01,2013-03-12 14:10:00,
2013-03-12 09:15:00,18.0,12.6,29.94,NNE,16,7.0,7.0,79,0.00,,SKC,0.00,VWS V14.01,2013-03-12 14:15:00,
2013-03-12 09:20:00,18.1,12.4,29.95,North,4,7.0,11.0,78,0.00,,SKC,0.00,VWS V14.01,2013-03-12 14:20:00,
2013-03-12 09:25:00,18.1,12.7,29.95,North,356,6.0,11.0,79,0.00,,SKC,0.00,VWS V14.01,2013-03-12 14:25:00,
2013-03-12 09:30:00,18.3,12.9,29.95,North,354,10.0,12.0,79,0.00,,SKC,0.00,VWS V14.01,2013-03-12 14:30:00,
2013-03-12 09:35:00,18.4,13.0,29.95,North,1,3.0,13.0,79,0.00,,SKC,0.00,VWS V14.01,2013-03-12 14:35:00,
2013-03-12 09:40:00,18.6,12.9,29.95,North,359,8.0,13.0,78,0.00,,SKC,0.00,VWS V14.01,2013-03-12 14:40:00,
2013-03-12 09:45:00,18.8,13.1,29.95,North,8,5.0,16.0,78,0.00,,SKC,0.00,VWS V14.01,2013-03-12 14:45:00,
2013-03-12 09:50:00,19.1,13.1,29.95,NNW,346,7.0,16.0,77,0.00,,SKC,0.00,VWS V14.01,2013-03-12 14:50:00,
2013-03-12 09:55:00,19.4,13.4,29.95,NNW,339,3.0,12.0,77,0.00,,SKC,0.00,VWS V14.01,2013-03-12 14:55:00,
2013-03-12 10:01:00,19.7,13.4,29.96,NNW,346,4.0,4.0,76,0.00,,SKC,0.00,VWS V14.01,2013-03-12 15:01:00,
2013-03-12 10:06:00,19.7,13.4,29.96,NNW,339,8.0,13.0,76,0.00,,SKC,0.00,VWS V14.01,2013-03-12 15:06:00,
2013-03-12 10:11:00,19.9,13.6,29.96,NNW,342,3.0,13.0,76,0.00,,SKC,0.00,VWS V14.01,2013-03-12 15:11:00,
2013-03-12 10:16:00,20.3,14.0,29.96,North,0,6.0,8.0,76,0.00,,SKC,0.00,VWS V14.01,2013-03-12 15:16:00,
2013-03-12 10:21:00,20.3,14.3,29.96,North,359,11.0,11.0,77,0.00,,SKC,0.00,VWS V14.01,2013-03-12 15:21:00,
2013-03-12 10:26:00,20.5,14.4,29.96,NNE,13,8.0,8.0,77,0.00,,SKC,0.00,VWS V14.01,2013-03-12 15:26:00,
2013-03-12 10:31:00,20.5,14.1,29.96,North,3,12.0,12.0,76,0.00,,SKC,0.00,VWS V14.01,2013-03-12 15:31:00,
2013-03-12 10:36:00,20.5,14.1,29.96,North,359,6.0,16.0,76,0.00,,SKC,0.00,VWS V14.01,2013-03-12 15:36:00,
2013-03-12 10:41:00,20.8,14.1,29.96,North,0,8.0,11.0,75,0.00,,SKC,0.00,VWS V14.01,2013-03-12 15:41:00,
2013-03-12 10:46:00,20.6,14.2,29.97,NNE,17,4.0,18.0,76,0.00,,SKC,0.00,VWS V14.01,2013-03-12 15:46:00,
2013-03-12 10:51:00,20.8,14.1,29.97,North,0,7.0,18.0,75,0.00,,SKC,0.00,VWS V14.01,2013-03-12 15:51:00,
2013-03-12 10:56:00,21.0,14.6,29.97,North,8,4.0,13.0,76,0.00,,SKC,0.00,VWS V14.01,2013-03-12 15:56:00,
2013-03-12 11:01:00,21.3,14.6,29.97,NNE,21,10.0,10.0,75,0.00,,SKC,0.00,VWS V14.01,2013-03-12 16:01:00,
2013-03-12 11:06:00,21.1,14.1,29.97,North,359,7.0,17.0,74,0.00,,SKC,0.00,VWS V14.01,2013-03-12 16:06:00,
2013-03-12 11:11:00,21.0,14.3,29.97,North,354,13.0,13.0,75,0.00,,SKC,0.00,VWS V14.01,2013-03-12 16:11:00,
2013-03-12 11:17:00,21.0,14.3,29.98,North,359,10.0,10.0,75,0.00,,SKC,0.00,VWS V14.01,2013-03-12 16:17:00,
2013-03-12 11:22:00,21.4,14.7,29.98,North,352,2.0,8.0,75,0.00,,SKC,0.00,VWS V14.01,2013-03-12 16:22:00,
2013-03-12 11:27:00,21.6,14.6,29.98,NNW,333,8.0,11.0,74,0.00,,SKC,0.00,VWS V14.01,2013-03-12 16:27:00,
2013-03-12 11:32:00,21.6,14.9,29.99,NNW,343,3.0,8.0,75,0.00,,SKC,0.00,VWS V14.01,2013-03-12 16:32:00,
2013-03-12 11:37:00,21.6,14.9,29.99,NNW,347,7.0,10.0,75,0.00,,SKC,0.00,VWS V14.01,2013-03-12 16:37:00,
2013-03-12 11:42:00,21.6,14.9,29.99,NNW,332,7.0,11.0,75,0.00,,SKC,0.00,VWS V14.01,2013-03-12 16:42:00,
2013-03-12 11:47:00,22.1,15.4,29.99,North,350,9.0,12.0,75,0.00,,SKC,0.00,VWS V14.01,2013-03-12 16:47:00,
2013-03-12 11:52:00,22.4,15.4,29.99,NNW,337,7.0,7.0,74,0.00,,SKC,0.00,VWS V14.01,2013-03-12 16:52:00,
2013-03-12 11:57:00,22.7,15.7,29.99,NNW,328,10.0,11.0,74,0.00,,SKC,0.00,VWS V14.01,2013-03-12 16:57:00,
2013-03-12 12:02:00,22.7,15.1,29.99,NNW,337,6.0,8.0,72,0.00,,SKC,0.00,VWS V14.01,2013-03-12 17:02:00,
2013-03-12 12:07:00,23.3,15.3,29.99,North,357,8.0,14.0,71,0.00,,SKC,0.00,VWS V14.01,2013-03-12 17:07:00,
2013-03-12 12:12:00,22.9,15.6,29.99,NNW,347,10.0,10.0,73,0.00,,SKC,0.00,VWS V14.01,2013-03-12 17:12:00,
2013-03-12 12:17:00,23.3,15.6,29.99,North,357,10.0,15.0,72,0.00,,SKC,0.00,VWS V14.01,2013-03-12 17:17:00,
2013-03-12 12:22:00,23.5,15.8,29.99,North,0,12.0,13.0,72,0.00,,SKC,0.00,VWS V14.01,2013-03-12 17:22:00,
2013-03-12 12:27:00,23.3,15.6,29.99,NNW,330,8.0,14.0,72,0.00,,SKC,0.00,VWS V14.01,2013-03-12 17:27:00,
2013-03-12 12:33:00,23.0,15.3,30.00,NNW,340,9.0,12.0,72,0.00,,SKC,0.00,VWS V14.01,2013-03-12 17:33:00,
2013-03-12 12:38:00,23.3,15.6,30.00,North,356,11.0,11.0,72,0.00,,SKC,0.00,VWS V14.01,2013-03-12 17:38:00,
2013-03-12 12:43:00,23.6,15.9,30.00,NNW,344,2.0,11.0,72,0.00,,SKC,0.00,VWS V14.01,2013-03-12 17:43:00,
2013-03-12 12:48:00,24.2,16.5,29.99,North,352,10.0,11.0,72,0.00,,SKC,0.00,VWS V14.01,2013-03-12 17:48:00,
2013-03-12 12:53:00,24.2,13.8,29.99,NNW,347,13.0,20.0,64,0.00,,SKC,0.00,VWS V14.01,2013-03-12 17:53:00,
2013-03-12 12:58:00,24.4,14.3,29.99,NNW,332,3.0,3.0,65,0.00,,SKC,0.00,VWS V14.01,2013-03-12 17:58:00,
2013-03-12 13:03:00,24.5,14.8,30.00,NNW,344,10.0,10.0,66,0.00,,SKC,0.00,VWS V14.01,2013-03-12 18:03:00,
2013-03-12 13:08:00,24.2,14.5,30.00,NNW,346,14.0,14.0,66,0.00,,SKC,0.00,VWS V14.01,2013-03-12 18:08:00,
2013-03-12 13:13:00,24.2,14.8,30.00,NW,312,8.0,17.0,67,0.00,,SKC,0.00,VWS V14.01,2013-03-12 18:13:00,
2013-03-12 13:18:00,24.2,14.8,30.00,NNW,343,11.0,17.0,67,0.00,,SKC,0.00,VWS V14.01,2013-03-12 18:18:00,
2013-03-12 13:24:00,24.1,14.4,30.00,NNW,339,12.0,12.0,66,0.00,,SKC,0.00,VWS V14.01,2013-03-12 18:24:00,
2013-03-12 13:29:00,24.1,14.4,30.00,North,0,7.0,13.0,66,0.00,,SKC,0.00,VWS V14.01,2013-03-12 18:29:00,
2013-03-12 13:34:00,24.1,14.7,30.00,NW,325,6.0,8.0,67,0.00,,SKC,0.00,VWS V14.01,2013-03-12 18:34:00,
2013-03-12 13:39:00,24.7,15.3,30.00,NW,320,6.0,16.0,67,0.00,,SKC,0.00,VWS V14.01,2013-03-12 18:39:00,
2013-03-12 13:44:00,24.8,15.1,30.00,NW,306,7.0,13.0,66,0.00,,SKC,0.00,VWS V14.01,2013-03-12 18:44:00,
2013-03-12 13:49:00,24.8,14.4,30.00,NW,325,16.0,16.0,64,0.00,,SKC,0.00,VWS V14.01,2013-03-12 18:49:00,
2013-03-12 13:54:00,24.7,14.3,30.00,North,357,13.0,17.0,64,0.00,,SKC,0.00,VWS V14.01,2013-03-12 18:54:00,
2013-03-12 13:59:00,24.7,14.3,30.00,North,354,8.0,21.0,64,0.00,,SKC,0.00,VWS V14.01,2013-03-12 18:59:00,
2013-03-12 14:04:00,24.7,14.6,30.00,North,0,6.0,12.0,65,0.00,,SKC,0.00,VWS V14.01,2013-03-12 19:04:00,
2013-03-12 14:09:00,25.1,14.6,30.00,North,352,8.0,17.0,64,0.00,,SKC,0.00,VWS V14.01,2013-03-12 19:09:00,
2013-03-12 14:16:00,25.3,14.5,30.00,North,350,11.0,11.0,63,0.00,,SKC,0.00,VWS V14.01,2013-03-12 19:16:00,
2013-03-12 14:21:00,25.3,14.5,30.00,North,8,12.0,16.0,63,0.00,,SKC,0.00,VWS V14.01,2013-03-12 19:21:00,
2013-03-12 14:26:00,25.1,13.2,30.00,NNW,344,6.0,16.0,60,0.00,,SKC,0.00,VWS V14.01,2013-03-12 19:26:00,
2013-03-12 14:31:00,25.0,15.9,30.00,NW,309,7.0,16.0,68,0.00,,SKC,0.00,VWS V14.01,2013-03-12 19:31:00,
2013-03-12 14:37:00,24.8,15.8,30.00,North,353,9.0,9.0,68,0.00,,SKC,0.00,VWS V14.01,2013-03-12 19:37:00,
2013-03-12 14:42:00,25.3,15.9,30.00,NNW,340,8.0,16.0,67,0.00,,SKC,0.00,VWS V14.01,2013-03-12 19:42:00,
2013-03-12 14:47:00,25.6,14.8,30.01,North,0,14.0,18.0,63,0.00,,SKC,0.00,VWS V14.01,2013-03-12 19:47:00,
2013-03-12 14:52:00,25.4,13.5,30.01,NW,325,7.0,11.0,60,0.00,,SKC,0.00,VWS V14.01,2013-03-12 19:52:00,
2013-03-12 14:57:00,25.3,12.6,30.01,North,354,11.0,20.0,58,0.00,,SKC,0.00,VWS V14.01,2013-03-12 19:57:00,
2013-03-12 15:02:00,25.3,12.2,30.01,North,8,15.0,22.0,57,0.00,,SKC,0.00,VWS V14.01,2013-03-12 20:02:00,
2013-03-12 15:07:00,25.6,12.9,30.01,NNW,346,19.0,19.0,58,0.00,,SKC,0.00,VWS V14.01,2013-03-12 20:07:00,
2013-03-12 15:12:00,25.8,13.5,30.01,North,0,12.0,12.0,59,0.00,,SKC,0.00,VWS V14.01,2013-03-12 20:12:00,
2013-03-12 15:17:00,25.8,12.3,30.01,North,0,22.0,22.0,56,0.00,,SKC,0.00,VWS V14.01,2013-03-12 20:17:00,
2013-03-12 15:23:00,25.6,12.1,30.01,North,359,11.0,11.0,56,0.00,,SKC,0.00,VWS V14.01,2013-03-12 20:23:00,
2013-03-12 15:28:00,25.8,11.9,30.01,North,8,9.0,22.0,55,0.00,,SKC,0.00,VWS V14.01,2013-03-12 20:28:00,
2013-03-12 15:33:00,25.6,12.1,30.01,North,0,11.0,18.0,56,0.00,,SKC,0.00,VWS V14.01,2013-03-12 20:33:00,
2013-03-12 15:38:00,25.8,11.9,30.01,North,0,10.0,12.0,55,0.00,,SKC,0.00,VWS V14.01,2013-03-12 20:38:00,
2013-03-12 15:43:00,26.0,12.1,30.01,North,357,8.0,13.0,55,0.00,,SKC,0.00,VWS V14.01,2013-03-12 20:43:00,
2013-03-12 15:48:00,25.6,11.7,30.02,North,0,13.0,21.0,55,0.00,,SKC,0.00,VWS V14.01,2013-03-12 20:48:00,
2013-03-12 15:53:00,25.6,11.7,30.02,North,4,11.0,16.0,55,0.00,,SKC,0.00,VWS V14.01,2013-03-12 20:53:00,
2013-03-12 15:58:00,25.4,11.5,30.02,North,0,16.0,16.0,55,0.00,,SKC,0.00,VWS V14.01,2013-03-12 20:58:00,
2013-03-12 16:03:00,25.7,11.8,30.02,NNW,337,11.0,17.0,55,0.00,,SKC,0.00,VWS V14.01,2013-03-12 21:03:00,
2013-03-12 16:08:00,26.1,12.6,30.02,North,357,13.0,17.0,56,0.00,,SKC,0.00,VWS V14.01,2013-03-12 21:08:00,
2013-03-12 16:13:00,26.6,13.0,30.02,NNW,342,12.0,13.0,56,0.00,,SKC,0.00,VWS V14.01,2013-03-12 21:13:00,
2013-03-12 16:18:00,26.1,11.7,30.03,North,354,13.0,15.0,54,0.00,,SKC,0.00,VWS V14.01,2013-03-12 21:18:00,